Regional Weather Roundup
Issued by NWS

Home | Current Version | Previous Version | Graphics & Text | Print | Product List | Glossary Off
Versions: 1 2 3 4 5 6 7 8 9 10 11 12 13 14 15 16 17 18 19 20 21 22 23 24 25 26 27 28 29 30 31 32 33 34 35 36 37 38 39 40 41 42 43 44 45 46 47 48 49 50

139
ASUS43 KMKX 120910
RWRWI

WISCONSIN REGIONAL WEATHER ROUNDUP
NATIONAL WEATHER SERVICE MILWAUKEE/SULLIVAN WI
300 AM CST FRI FEB 12 2016

NOTE: "FAIR" INDICATES FEW OR NO CLOUDS BELOW 12,000 FEET WITH NO
SIGNIFICANT WEATHER AND/OR OBSTRUCTIONS TO VISIBILITY.

WIZ001-002-006>008-014>016-023>028-121000-
NORTHWEST WISCONSIN

CITY           SKY/WX    TMP DP  RH WIND       PRES   REMARKS
SUPERIOR ARPT  CLEAR      8  -1  66 NW16G22   30.19S WCI -10
ASHLAND        MOCLDY    10   1  67 W12       30.12R WCI  -5
HAYWARD        MOCLDY    10  -1  61 VRB5      30.11R WCI   2
SIREN          PTCLDY    11   0  61 NW9       30.17S WCI  -1
CUMBERLAND     CLOUDY    12   3  67 NW15G22   30.12R WCI  -4
RICE LAKE      CLOUDY    13   7  78 W8        30.15R WCI   2
CHETEK         CLOUDY    13   8  80 W6        30.13S WCI   3
LADYSMITH      CLOUDY    12   6  74 W8        30.11S WCI   1
EAU CLAIRE     CLOUDY    14   7  73 W8        30.15S WCI   3
MENOMONIE      CLOUDY    15   8  73 W8        30.17R WCI   4
NEW RICHMOND   CLOUDY    13   8  79 W10       30.16F WCI   0
OSCEOLA        PTCLDY    14   9  81 W9        30.21S WCI   2
$$

WIZ003>005-009-010-017-018-121000-
NORTH CENTRAL WISCONSIN

CITY           SKY/WX    TMP DP  RH WIND       PRES   REMARKS
MANITOWISH WTR CLOUDY     8   1  74 NW9       30.00S WCI  -6
ARBOR VITAE    CLOUDY    11   3  68 NW10G17   30.00F WCI  -2
WOODRUFF       CLOUDY    11   3  68 NW10G17   30.00F WCI  -2
RHINELANDER    CLOUDY     9  -1  64 W9        30.01S WCI  -4
EAGLE RIVER    CLOUDY     9  -1  64 W10G17    29.98F WCI  -5
LAND O LAKES   LGT SNOW   9   3  77 W8        29.98S WCI  -3
PHILLIPS       CLOUDY     9   1  69 NW6       30.04S WCI  -1
TOMAHAWK       CLOUDY     9   1  68 W6        30.04S WCI   0
MEDFORD        CLOUDY    10   3  72 W9        30.05S WCI  -2
MERRILL        CLOUDY    11   1  65 W6        30.06F WCI   2
$$

WIZ029-030-035-036-043>047-121000-
CENTRAL WISCONSIN

CITY           SKY/WX    TMP DP  RH WIND       PRES   REMARKS
WAUSAU         CLOUDY    13   2  61 W13       30.06S WCI  -2
MOSINEE        CLOUDY    12   5  73 W10G16    30.07F WCI  -1
MARSHFIELD     CLOUDY    13   2  61 W9        30.07F WCI   1
STEVENS POINT  CLOUDY    11   1  64 W7        30.09F WCI   1
WAUPACA        CLOUDY    16   2  54 W10       30.10F WCI   4
WAUTOMA        CLOUDY    14   1  56 W8        30.13S WCI   3
WISC RAPIDS    CLOUDY    13   1  59 W9        30.12F WCI   1
CAMP DOUGLAS   CLOUDY    13   7  76 W9        30.14S WCI   0
$$

WIZ011>013-019>022-031-037>040-048>050-121000-
NORTHEAST WISCONSIN

CITY           SKY/WX    TMP DP  RH WIND       PRES   REMARKS
ANTIGO         CLOUDY     9   0  67 NW9       30.02S WCI  -4
SHAWANO        CLOUDY    16   2  54 W6        30.09S WCI   8
OCONTO         CLOUDY    14   1  55 W7        30.08S WCI   4
STURGEON BAY   CLOUDY    14   0  52 W12G17    30.07F WCI   0
GREEN BAY      CLOUDY    15   2  56 W12       30.09F WCI   2
MANITOWOC      CLOUDY    15   4  61 W9        30.10F WCI   3
APPLETON       CLOUDY    14   1  57 W10       30.07S WCI   1
CLINTONVILLE   CLOUDY    16   1  53 W12       30.09S WCI   3
OSHKOSH        CLOUDY    15   1  53 W9        30.10F WCI   3
$$

WIZ032>034-041-042-053>061-121000-
SOUTHWEST WISCONSIN

CITY           SKY/WX    TMP DP  RH WIND       PRES   REMARKS
LA CROSSE      CLOUDY    14   7  73 W5        30.19F WCI   6
SPARTA         FLURRIES  13   8  79 SW3       30.17F
VIROQUA        CLOUDY    11   8  87 W7        30.13S WCI   0
BOSCOBEL       LGT SNOW  15   8  73 W5        30.20F WCI   8
PRAIRIE DU CHI MIX PCPN  15   6  68 W3        30.21S
PLATTEVILLE    CLOUDY    15   7  70 W6        30.16F WCI   6
$$

WIZ056-057-062-063-064-067-068-121000-
SOUTH CENTRAL WISCONSIN

CITY           SKY/WX    TMP DP  RH WIND       PRES   REMARKS
REEDSBURG      FLURRIES  13   5  70 W6        30.14F WCI   4
BARABOO/DELLS  CLOUDY    13   3  64 W8        30.13S WCI   2
LONE ROCK      FLURRIES  14   4  64 W6        30.18F WCI   5
MINERAL POINT  FLURRIES  16   7  67 W7        30.14F WCI   6
MADISON        CLOUDY    15   0  51 VRB3      30.14F
MIDDLETON      CLOUDY    17   4  56 W10       30.15S WCI   4
WATERTOWN      CLOUDY    16   3  56 W7        30.13F WCI   6
MONROE         CLOUDY    16   7  67 W9        30.14S WCI   4
JANESVILLE     CLOUDY    19   9  63 W6        30.16F WCI  11
$$

WIZ051-052-058>065-066-070>072-121000-
SOUTHEAST WISCONSIN

CITY           SKY/WX    TMP DP  RH WIND       PRES   REMARKS
MILWAUKEE      CLOUDY    18   3  52 W10       30.13F WCI   6
WAUKESHA       CLOUDY    16   5  62 W10       30.13S WCI   3
MILWAUKEE/TIMM CLOUDY    18   3  53 W9        30.13F WCI   6
RACINE         CLOUDY    18   5  57 W12       30.14F WCI   5
BURLINGTON     CLOUDY    16   5  63 W8        30.14F WCI   5
KENOSHA        CLOUDY    18   6  59 W9        30.14F WCI   7
FOND DU LAC    CLOUDY    15   2  56 W9        30.11F WCI   3
SHEBOYGAN      CLOUDY    16   2  54 W15       30.09F WCI   1
WEST BEND      CLOUDY    18   1  49 W6G16     30.10F WCI   9
JUNEAU         CLOUDY    14   2  58 W9        30.12F WCI   2
$$

LSZ147-162-121000-
LAKE SUPERIOR

STATION/POSITION TIME  TEMP    WIND        PRES    WAVE
                       AIR SEA DIR/SP/G            HT/PER
                 (UTC) (F)     (DEG/KT/KT) (MB)    (FT/S)
DEVILS ISLAND    0900   13     300/ 19/ 22 1021.0R
PORT WING        0800   13     290/ 18/ 21 1020.7S
SAXON HARBOR     0840   13                 1019.3S
$$

LMZ867-665-643>646-121000-
LAKE MICHIGAN

STATION/POSITION TIME  TEMP    WIND        PRES    WAVE
                       AIR SEA DIR/SP/G            HT/PER
                 (UTC) (F)     (DEG/KT/KT) (MB)    (FT/S)
CHAMBERS ISLAND  0800   15     240/  7/ 13 1017.9F
ALGOMA LAKESHORE 0841          280/  3/  8   N/A
KEWAUNEE LAKESHO 0800   16     270/  9/ 14 1018.1F
SHEBOYGAN LAKESH 0900   17     270/ 11/ 15 1020.7F
PORT WASHINGTON  0800   17     270/ 10/ 16 1021.3F
MILWAUKEE LAKESH 0810   19     270/ 11/ 13   N/A
KENOSHA   LAKESH 0900   19     260/ 13/ 16 1020.7F
$$

TC  - TEMPERATURE IN CELSIUS
VSB - VISIBILITY IN STATUTE MILES
WCI - WIND CHILL INDEX
HX  - HEAT INDEX





USA.gov is the U.S. government's official web portal to all federal, state and local government web resources and services.